CW5272 Weather Reports


time (UTC)temp
C
wind
direction
speed
KPH
gust
KPH
rain 1hr
cm
rain 24hr
cm
rain mn
cm
humidity
%
barometer
mb
20260507040035 15 225 4.8 12.9 0.00 0.00 0.00 83 1019.1
20260507034534 15 225 3.2 12.9 0.00 0.00 0.00 83 1018.9
20260507033036 15 223 4.8 11.3 0.00 0.00 0.00 81 1019.0
20260507031531 16 222 6.4 12.9 0.00 0.00 0.00 79 1018.8
20260507030034 16 221 4.8 14.5 0.00 0.00 0.00 77 1018.7
20260507024534 17 218 4.8 11.3 0.00 0.00 0.00 75 1018.4
20260507023033 18 0 1.6 14.5 0.00 0.00 0.00 73 1018.4
20260507021532 18 209 1.6 14.5 0.00 0.00 0.00 71 1018.4
20260507020034 20 202 1.6 11.3 0.00 0.00 0.00 70 1018.4
20260507014535 20 200 1.6 12.9 0.00 0.00 0.00 68 1018.3
20260507013037 21 0 0.0 11.3 0.00 0.00 0.00 67 1018.3
20260507011538 21 196 4.8 11.3 0.00 0.00 0.00 67 1018.3
20260507010030 21 0 0.0 9.7 0.00 0.00 0.00 66 1018.3
20260507004530 21 0 0.0 4.8 0.00 0.00 0.00 66 1018.3
20260507003033 22 0 0.0 4.8 0.00 0.00 0.00 65 1018.2
20260507001546 22 192 1.6 8.0 0.00 0.00 0.00 63 1018.0
20260507000030 22 0 0.0 6.4 0.00 0.00 0.00 63 1018.1
20260506234541 22 0 0.0 6.4 0.00 0.00 0.00 61 1018.1
20260506233033 22 194 3.2 11.3 0.00 0.00 0.00 61 1018.3
20260506231536 22 0 0.0 11.3 0.00 0.00 0.00 62 1018.2
20260506230039 22 190 1.6 8.0 0.00 0.00 0.00 62 1018.3
20260506224532 22 0 1.6 9.7 0.00 0.00 0.00 62 1018.6
20260506223038 22 0 0.0 12.9 0.00 0.00 0.00 64 1018.7
20260506221531 22 0 3.2 11.3 0.00 0.00 0.00 61 1018.7
20260506220033 22 0 0.0 11.3 0.00 0.00 0.00 63 1018.8
20260506214532 22 0 3.2 17.7 0.00 0.00 0.00 61 1019.0
20260506213029 22 210 3.2 12.9 0.00 0.00 0.00 63 1019.2
20260506211538 22 207 1.6 14.5 0.00 0.00 0.00 64 1019.4
20260506210035 21 0 0.0 8.0 0.00 0.00 0.00 64 1019.4
20260506204536 22 0 0.0 6.4 0.00 0.00 0.00 59 1019.4
20260506203052 21 227 3.2 16.1 0.00 0.00 0.00 64 1019.6
20260506201533 21 0 0.0 8.0 0.00 0.00 0.00 63 1019.8
20260506200044 20 289 0.0 6.4 0.00 0.00 0.00 65 1019.9
20260506194534 20 0 0.0 0.0 0.00 0.00 0.00 65 1020.2
20260506193031 20 0 0.0 4.8 0.00 0.00 0.00 69 1020.2
20260506191532 20 0 1.6 8.0 0.00 0.00 0.00 66 1020.3
20260506190039 20 0 0.0 3.2 0.00 0.00 0.00 63 1020.3
20260506184541 20 328 4.8 14.5 0.00 0.00 0.00 66 1020.4
20260506183033 18 0 0.0 6.4 0.00 0.00 0.00 68 1020.3
20260506181533 17 0 0.0 8.0 0.00 0.00 0.00 72 1020.5
20260506180036 16 0 1.6 9.7 0.00 0.00 0.00 75 1020.4
20260506174530 16 0 0.0 0.0 0.00 0.00 0.00 78 1020.4
20260506173037 17 0 0.0 8.0 0.00 0.00 0.00 72 1020.3
20260506171535 16 0 0.0 3.2 0.00 0.00 0.00 78 1020.4
20260506170033 16 0 0.0 3.2 0.00 0.00 0.00 78 1020.5
20260506164532 15 0 0.0 4.8 0.00 0.00 0.00 79 1020.5
20260506163045 16 0 0.0 1.6 0.00 0.00 0.00 77 1020.6
20260506161530 15 327 1.6 8.0 0.00 0.00 0.00 80 1020.5
20260506160035 14 0 0.0 6.4 0.00 0.00 0.00 82 1020.6
20260506154538 15 0 0.0 6.4 0.00 0.00 0.00 80 1020.6
20260506153033 14 0 0.0 9.7 0.00 0.00 0.00 84 1020.6
20260506151539 12 0 0.0 6.4 0.00 0.00 0.00 90 1020.6
20260506150029 12 0 0.0 14.5 0.00 0.00 0.00 93 1020.6
20260506144534 11 0 0.0 9.7 0.00 0.00 0.00 93 1020.7
20260506143032 11 0 0.0 0.0 0.00 0.00 0.00 93 1020.6
20260506141535 10 0 0.0 6.4 0.00 0.00 0.00 93 1020.6
20260506140034 10 0 0.0 4.8 0.00 0.00 0.00 93 1020.3
20260506134531 10 0 0.0 0.0 0.00 0.00 0.00 93 1020.1
20260506133033 10 0 0.0 0.0 0.00 0.00 0.00 92 1020.0
20260506131536 10 0 0.0 0.0 0.00 0.00 0.00 92 1019.8
20260506130030 10 0 0.0 0.0 0.00 0.00 0.00 92 1019.5
20260506124533 11 0 0.0 0.0 0.00 0.00 0.00 92 1019.5
20260506123033 11 0 0.0 6.4 0.00 0.00 0.00 92 1019.5
20260506121533 11 0 0.0 0.0 0.00 0.00 0.00 92 1019.4
20260506120034 11 0 0.0 0.0 0.00 0.00 0.00 92 1019.3
20260506114530 11 0 0.0 0.0 0.00 0.00 0.00 92 1019.3
20260506113032 11 0 0.0 0.0 0.00 0.00 0.00 92 1019.3
20260506111534 10 0 0.0 0.0 0.00 0.00 0.00 92 1019.2
20260506110034 10 0 0.0 0.0 0.00 0.00 0.00 92 1019.2
20260506104532 10 0 0.0 0.0 0.00 0.00 0.00 92 1019.1
20260506103033 10 0 0.0 0.0 0.00 0.00 0.00 92 1019.2
20260506101533 10 0 0.0 0.0 0.00 0.00 0.00 92 1019.3
20260506100034 10 0 0.0 0.0 0.00 0.00 0.00 92 1019.2
20260506094535 10 0 0.0 0.0 0.00 0.00 0.00 92 1019.1
20260506093032 10 0 0.0 0.0 0.00 0.00 0.00 92 1019.3
20260506091532 10 0 0.0 4.8 0.00 0.00 0.00 91 1019.3
20260506090030 10 0 0.0 4.8 0.00 0.00 0.00 91 1019.1
20260506084537 10 0 1.6 8.0 0.00 0.00 0.00 91 1018.9
20260506083035 10 0 1.6 14.5 0.00 0.00 0.00 90 1018.9
20260506081537 10 325 1.6 9.7 0.00 0.00 0.00 91 1018.9
20260506073038 11 324 4.8 12.9 0.00 0.00 0.00 89 1018.7
20260506071552 11 0 4.8 12.9 0.00 0.00 0.00 89 1018.8
20260506061542 11 0 1.6 9.7 0.00 0.00 0.00 88 1018.5
20260506044530 11 0 0.0 8.0 0.00 0.00 0.00 87 1018.0
20260506043031 11 0 0.0 0.0 0.00 0.00 0.00 87 1017.9
20260506041550 11 0 0.0 9.7 0.00 0.00 0.00 87 1017.8